Date,TemperatureHighF,TemperatureAvgF,TemperatureLowF,DewpointHighF,DewpointAvgF,DewpointLowF,HumidityHigh,HumidityAvg,HumidityLow,PressureMaxIn,PressureMinIn,WindSpeedMaxMPH,WindSpeedAvgMPH,GustSpeedMaxMPH,PrecipitationSumIn
2013-1-1,55.4,32.3,36.1,44.7,7.8,-99.9,92,66,63,30.02,29.46,6,-209,6,0.02
2013-1-2,50.4,43.7,36.1,48.1,41.1,20.9,92,90,87,30.29,30.02,5,-6,5,0.00
2013-1-3,55.0,50.2,47.3,50.9,47.5,45.1,93,90,85,30.58,30.29,4,0,4,0.00
2013-1-4,49.8,48.1,45.5,45.8,44.3,42.7,91,87,82,30.62,30.56,5,0,5,0.00
2013-1-5,51.1,47.8,44.2,48.5,45.3,41.9,93,91,88,30.57,30.47,5,0,5,0.00
2013-1-6,46.9,41.8,41.5,44.9,33.9,-99.9,94,87,49,30.49,30.34,8,-58,8,0.00
2013-1-7,46.6,32.5,43.5,44.5,0.1,-99.9,94,65,49,30.34,30.21,9,-294,9,0.00
2013-1-8,48.0,10.9,47.3,45.4,-66.8,-99.9,93,20,88,30.24,30.14,5,-771,5,0.02
2013-1-9,49.8,37.6,35.2,46.8,21.4,-99.9,94,79,87,30.14,30.03,3,-138,3,0.14
2013-1-10,41.9,16.1,34.3,39.7,-42.7,-99.9,93,42,92,30.03,29.88,2,-558,2,0.00
2013-1-11,45.0,17.2,34.7,41.6,-42.8,-99.9,93,38,87,30.05,29.93,3,-559,3,0.00
2013-1-12,-200.0,0.0,200.0,-99.9,-99.9,-99.9,0,0,100,29.93,29.77,0,-999,0,0.00
2013-1-13,41.5,5.7,32.2,34.5,-79.4,-99.9,86,14,74,30.10,29.90,2,-828,2,0.25
2013-1-14,-200.0,0.0,200.0,-99.9,-99.9,-99.9,0,0,100,30.06,29.60,0,-999,0,0.00
2013-1-15,-200.0,0.0,200.0,-99.9,-99.9,-99.9,0,0,100,29.83,29.60,0,-999,0,0.00
2013-1-16,-200.0,0.0,200.0,-99.9,-99.9,-99.9,0,0,100,29.99,29.78,0,-999,0,0.00
2013-1-17,34.9,1.0,34.7,30.0,-96.4,-99.9,83,2,41,30.04,29.83,3,-971,3,0.00
2013-1-18,-200.0,0.0,200.0,-99.9,-99.9,-99.9,0,0,100,29.83,29.35,0,-999,0,0.00
2013-1-19,34.9,10.7,30.0,30.3,-55.9,-99.9,92,30,50,29.42,29.33,11,-657,11,0.00
2013-1-20,-200.0,0.0,200.0,-99.9,-99.9,-99.9,0,0,100,29.40,29.23,0,-999,0,0.00
2013-1-21,-200.0,0.0,200.0,-99.9,-99.9,-99.9,0,0,100,29.46,29.21,0,-999,0,0.00
2013-1-22,-200.0,0.0,200.0,-99.9,-99.9,-99.9,0,0,100,29.62,29.45,0,-999,0,0.00
2013-1-23,32.9,0.6,32.7,30.4,-98.1,-99.9,91,1,91,29.75,29.62,2,-982,2,0.00
2013-1-24,-200.0,0.0,200.0,-99.9,-99.9,-99.9,0,0,100,30.11,29.75,0,-999,0,0.00
2013-1-25,-200.0,0.0,200.0,-99.9,-99.9,-99.9,0,0,100,30.09,29.50,0,-999,0,0.00
2013-1-26,46.0,8.3,37.4,42.6,-73.3,-99.9,93,17,80,29.81,29.50,13,-792,13,0.37
2013-1-27,57.7,28.6,39.9,46.6,-12.2,-99.9,93,50,59,29.59,29.23,9,-354,9,0.16
2013-1-28,50.7,24.8,39.9,47.6,-25.2,-99.9,94,46,82,29.80,29.50,17,-462,17,0.12
2013-1-29,54.7,49.2,48.0,52.2,40.5,-99.9,94,88,86,29.63,29.52,18,-63,18,0.10
2013-1-30,61.5,49.1,43.0,51.2,43.5,37.0,94,82,59,30.02,29.47,13,-2,13,0.12
2013-1-31,53.2,47.4,43.7,44.5,41.1,38.2,91,79,66,30.01,29.77,13,2,13,0.08
2013-2-1,46.6,40.8,37.2,41.7,35.4,-99.9,92,86,81,29.82,29.42,8,-20,8,0.16
2013-2-2,48.7,26.2,29.7,36.7,-9.5,-99.9,91,54,58,30.22,29.55,4,-301,4,0.00
2013-2-3,48.0,27.2,29.3,45.0,-16.0,-99.9,89,51,78,30.23,29.88,11,-393,11,0.00
2013-2-4,51.4,46.7,41.9,45.7,40.0,34.7,89,78,60,29.93,29.70,10,2,10,0.00
2013-2-5,46.9,29.8,33.4,37.1,-0.2,-99.9,87,60,55,29.70,29.31,8,-248,8,0.04
2013-2-6,42.6,31.3,34.9,37.3,2.8,-99.9,86,59,69,30.03,29.33,9,-210,9,0.02
2013-2-7,42.4,20.3,34.3,33.4,-31.0,-99.9,88,41,67,30.09,29.95,5,-485,5,0.00
2013-2-8,49.1,20.2,34.7,37.5,-32.1,-99.9,88,40,61,30.11,29.99,6,-490,6,0.00
2013-2-9,37.8,21.2,34.5,35.1,-21.7,-99.9,92,54,85,30.12,29.81,5,-403,5,0.08
2013-2-10,40.8,28.4,35.4,39.2,1.4,-99.9,94,70,93,29.81,29.16,10,-245,10,0.57
2013-2-11,35.8,31.5,32.5,33.9,22.8,-99.9,94,87,93,29.71,29.20,6,-62,6,0.00
2013-2-12,36.3,18.5,32.2,32.2,-27.4,-99.9,93,49,83,30.09,29.71,3,-451,3,0.00
2013-2-13,39.4,16.7,32.2,37.5,-38.8,-99.9,93,40,74,30.16,29.94,13,-531,13,0.00
2013-2-14,60.6,35.3,38.5,49.3,9.4,-99.9,95,67,65,29.95,29.71,10,-228,10,0.04
2013-2-15,54.1,38.7,34.2,43.0,27.2,-99.9,92,79,62,30.17,29.94,4,-34,4,0.00
2013-2-16,50.9,40.9,32.7,43.4,35.8,29.4,89,82,68,30.20,30.14,4,-3,4,0.00
2013-2-17,58.8,33.5,29.8,44.5,12.3,-99.9,92,67,54,30.16,30.04,6,-151,6,0.00
2013-2-18,58.6,34.0,30.9,43.9,15.8,-99.9,93,69,58,30.10,30.04,8,-124,8,0.00
2013-2-19,65.5,25.1,31.3,47.1,-22.9,-99.9,88,42,50,30.09,30.00,3,-427,3,0.00
2013-2-20,53.4,22.8,30.7,40.9,-19.0,-99.9,92,50,61,30.20,30.05,6,-364,6,0.00
2013-2-21,39.7,12.3,32.5,27.0,-56.6,-99.9,77,25,60,30.21,30.10,7,-638,7,0.00
2013-2-22,35.2,3.5,33.4,26.4,-87.1,-99.9,72,7,69,30.11,30.04,10,-894,10,0.00
2013-2-23,-200.0,0.0,200.0,-99.9,-99.9,-99.9,0,0,100,30.17,30.04,0,-999,0,0.00
2013-2-24,34.3,10.2,33.4,27.6,-61.6,-99.9,77,23,73,30.24,30.15,4,-689,4,0.00
2013-2-25,38.8,14.5,33.3,34.2,-49.2,-99.9,87,33,76,30.32,30.21,5,-607,5,0.00
2013-2-26,39.7,23.0,35.4,37.2,-19.1,-99.9,92,55,89,30.51,30.32,6,-405,6,0.00
2013-2-27,45.0,26.6,34.9,36.8,-6.9,-99.9,91,58,72,30.52,30.42,10,-309,10,0.00
2013-2-28,45.3,27.3,34.9,37.5,-9.1,-99.9,86,55,73,30.43,30.28,9,-315,9,0.00
2013-3-1,43.9,31.1,35.4,40.2,3.5,-99.9,92,62,72,30.36,30.32,10,-218,10,0.00
2013-3-2,45.3,26.2,27.7,35.0,-6.7,-99.9,85,56,67,30.36,30.22,6,-281,6,0.00
2013-3-3,44.2,22.3,27.3,37.1,-24.2,-99.9,88,46,75,30.25,30.05,4,-453,4,0.00
2013-3-4,59.9,35.8,30.7,43.0,12.9,-99.9,93,63,53,30.05,29.68,7,-155,7,0.00
2013-3-5,66.0,39.8,31.8,50.2,16.7,-99.9,92,62,55,29.68,29.51,8,-169,8,0.00
2013-3-6,59.5,49.1,41.9,48.7,41.3,-99.9,87,76,66,29.52,29.43,2,-10,2,0.00
2013-3-7,52.3,44.8,43.7,49.5,36.5,-99.9,93,86,87,29.44,29.30,4,-59,4,0.29
2013-3-8,50.0,46.4,47.3,48.1,40.6,-99.9,94,91,93,29.49,29.30,3,-34,3,0.28
2013-3-9,48.0,41.4,38.1,45.9,32.6,-99.9,94,88,88,29.61,29.47,3,-75,3,0.04
2013-3-10,39.0,36.1,32.9,35.0,31.8,27.7,89,84,79,29.67,29.59,19,1,19,0.00
2013-3-11,33.1,3.3,31.5,28.1,-86.9,-99.9,83,10,76,29.67,29.63,11,-879,11,0.00
2013-3-12,41.2,9.1,34.3,29.6,-67.5,-99.9,83,19,52,29.77,29.65,8,-741,8,0.00
2013-3-13,41.5,1.9,34.3,29.6,-94.9,-99.9,83,3,82,29.91,29.74,2,-943,2,0.00
2013-3-14,37.2,1.4,36.7,25.4,-95.1,-99.9,62,2,62,29.99,29.88,1,-957,1,0.00
2013-3-15,44.4,1.7,43.3,40.8,-94.5,-99.9,90,4,85,29.88,29.51,15,-953,15,0.14
2013-3-16,43.7,18.8,41.2,41.0,-38.2,-99.9,92,41,88,29.51,29.22,22,-551,22,0.49
2013-3-17,45.3,25.8,30.7,42.3,-9.3,-99.9,92,60,50,29.27,29.09,6,-349,6,0.41
2013-3-18,44.2,16.0,28.0,42.1,-42.7,-99.9,94,40,91,29.30,29.14,1,-578,1,0.18
2013-3-19,49.3,19.5,34.7,43.3,-34.2,-99.9,94,45,77,29.44,29.30,3,-482,3,0.02
2013-3-20,46.6,26.0,35.8,40.6,-14.9,-99.9,92,54,76,29.94,29.43,5,-350,5,0.00
2013-3-21,45.0,33.1,35.4,36.3,10.7,-99.9,91,69,70,29.97,29.83,10,-172,10,0.16
2013-3-22,48.4,29.5,35.8,41.3,0.6,-99.9,92,67,72,29.83,29.63,10,-232,10,0.28
2013-3-23,37.4,19.7,33.6,34.7,-25.4,-99.9,93,52,90,29.80,29.66,9,-419,9,0.47
2013-3-24,34.0,8.4,30.9,31.8,-70.1,-99.9,92,19,76,29.88,29.79,3,-789,3,0.00
2013-3-25,36.1,9.5,32.7,28.0,-64.4,-99.9,76,22,72,29.90,29.85,21,-711,21,0.00
2013-3-26,36.3,7.4,35.2,28.0,-74.6,-99.9,72,14,67,29.88,29.82,11,-793,11,0.00
2013-3-27,45.3,9.8,37.8,30.5,-69.3,-99.9,68,15,56,29.83,29.78,11,-736,11,0.00
2013-3-28,-200.0,0.0,200.0,-99.9,-99.9,-99.9,0,0,100,29.89,29.79,1,-981,1,0.00
2013-3-29,40.1,10.2,30.2,26.4,-62.6,-99.9,78,21,57,29.87,29.72,6,-703,6,0.00
2013-3-30,44.6,27.4,28.2,32.2,-4.2,-99.9,83,54,58,29.92,29.72,8,-249,8,0.00
2013-3-31,45.1,15.2,26.4,35.6,-49.5,-99.9,86,27,57,29.94,29.83,8,-601,8,0.00
2013-4-1,36.0,1.5,32.2,27.3,-94.9,-99.9,82,5,70,29.83,29.76,6,-953,6,0.00
2013-4-2,-200.0,0.0,200.0,-99.9,-99.9,-99.9,0,0,100,30.01,29.82,0,-999,0,0.00
2013-4-3,-200.0,0.0,200.0,-99.9,-99.9,-99.9,0,0,100,30.01,29.93,0,-999,0,0.00
2013-4-4,33.4,1.2,32.9,27.2,-95.0,-99.9,78,3,76,29.94,29.85,0,-956,0,0.02
2013-4-5,-200.0,0.0,200.0,-99.9,-99.9,-99.9,0,0,100,30.07,29.84,0,-999,0,0.00
2013-4-6,-200.0,0.0,200.0,37.3,-89.1,-99.9,55,5,47,30.23,30.06,4,-922,4,0.00
2013-4-7,49.6,0.7,49.6,31.3,-98.1,-99.9,49,1,49,30.24,29.81,0,-999,0,0.00
2013-4-8,51.1,7.9,40.1,34.1,-76.3,-99.9,73,11,52,29.81,29.47,2,-821,2,0.00
2013-4-9,47.1,30.4,37.9,42.5,-0.9,-99.9,90,63,73,29.49,29.30,5,-299,5,0.25
2013-4-10,44.4,28.2,36.9,40.8,-3.6,-99.9,92,63,83,29.67,29.33,6,-300,6,0.31
2013-4-11,51.4,26.2,42.3,47.4,-16.1,-99.9,94,54,85,29.44,29.28,4,-417,4,0.06
2013-4-12,54.3,23.3,43.5,46.5,-27.1,-99.9,93,47,50,29.71,29.24,11,-471,11,0.25
2013-4-13,51.6,25.8,48.2,48.8,-25.3,-99.9,94,47,80,29.85,29.71,17,-472,17,0.41
2013-4-14,57.0,21.1,50.5,50.4,-39.6,-99.9,94,36,78,29.91,29.83,14,-592,14,0.00
2013-4-15,54.5,8.7,50.4,46.7,-76.2,-99.9,85,14,50,30.02,29.90,9,-833,9,0.00
2013-4-16,66.0,24.1,46.6,49.9,-34.8,-99.9,92,34,56,30.04,29.86,13,-550,13,0.00
2013-4-17,69.8,42.0,47.8,54.9,9.8,-99.9,93,57,50,30.04,29.73,16,-252,16,0.00
2013-4-18,65.3,46.2,43.7,48.4,28.1,-99.9,81,64,54,30.05,29.76,20,-94,20,0.04
2013-4-19,64.2,49.5,41.7,44.4,39.2,35.3,85,69,47,30.44,30.05,7,1,7,0.02
2013-4-20,73.0,45.5,32.4,46.6,28.2,-99.9,91,60,38,30.51,30.31,7,-48,7,0.00
2013-4-21,70.7,44.1,29.3,44.7,27.3,-99.9,86,63,37,30.31,29.99,6,-59,6,0.00
2013-4-22,65.1,48.4,44.1,47.7,35.2,-99.9,89,71,53,29.99,29.91,8,-61,8,0.00
2013-4-23,81.0,54.3,47.3,56.6,32.9,-99.9,89,61,42,30.17,29.94,6,-110,6,0.00
2013-4-24,74.5,30.2,44.8,57.7,-25.6,-99.9,86,34,56,30.22,30.14,7,-513,7,0.00
2013-4-25,79.3,49.5,48.0,60.9,20.8,-99.9,92,56,48,30.21,29.96,14,-195,14,0.00
2013-4-26,57.9,45.7,39.9,46.3,30.8,-99.9,89,67,48,29.98,29.85,7,-54,7,0.06
2013-4-27,55.6,41.2,34.3,43.4,31.2,-99.9,86,73,58,30.06,29.85,10,-31,10,0.04
2013-4-28,60.1,43.8,30.4,45.4,29.5,-99.9,91,66,51,30.06,29.87,10,-41,10,0.00
2013-4-29,68.4,51.4,44.1,46.3,39.0,34.2,85,64,44,30.13,29.85,6,1,6,0.00
2013-4-30,70.2,50.6,37.2,44.7,37.3,31.6,83,62,40,30.25,30.13,6,0,6,0.00
2013-5-1,72.7,51.3,36.5,47.6,38.0,29.1,87,63,38,30.26,30.09,5,0,5,0.00
2013-5-2,78.4,48.4,36.5,43.2,17.7,-99.9,76,43,28,30.17,30.09,5,-125,5,0.00
2013-5-3,81.0,41.2,48.7,50.4,-6.8,-99.9,69,33,34,30.13,29.99,4,-357,4,0.00
2013-5-4,62.8,48.7,44.8,53.0,34.0,-99.9,86,66,50,30.09,29.94,11,-64,11,0.08
2013-5-5,76.8,56.4,44.8,57.4,46.5,38.5,82,70,51,30.14,30.08,6,1,6,0.00
2013-5-6,81.5,53.5,46.9,56.9,28.2,-99.9,84,58,42,30.11,29.99,10,-106,10,0.00
2013-5-7,62.4,16.0,44.4,55.9,-12.2,-99.9,80,36,38,30.02,29.79,7,-359,7,0.00
2013-5-8,60.4,33.6,51.6,52.3,-11.3,-99.9,90,46,67,29.79,29.63,12,-396,12,0.04
2013-5-9,60.6,26.7,43.3,47.7,-28.2,-99.9,88,37,59,29.80,29.64,21,-488,21,0.00
2013-5-10,68.2,44.3,48.0,51.8,15.4,-99.9,86,60,54,29.89,29.65,11,-191,11,0.00
2013-5-11,61.7,13.5,42.4,49.9,-63.7,-99.9,91,22,65,29.88,29.76,4,-749,4,0.00
2013-5-12,62.8,6.9,54.7,47.4,-83.6,-99.9,69,7,56,29.99,29.87,7,-869,7,0.00
2013-5-13,63.7,18.6,45.5,48.1,-53.7,-99.9,78,21,52,29.88,29.77,9,-636,9,0.00
2013-5-14,52.3,32.9,43.3,45.7,-6.0,-99.9,92,55,70,29.78,29.13,19,-282,19,0.00
2013-5-15,44.2,1.4,43.7,40.6,-95.5,-99.9,87,3,86,29.50,29.09,16,-967,16,0.00
2013-5-16,-200.0,0.0,200.0,-99.9,-99.9,-99.9,0,0,100,29.51,29.41,0,-999,0,0.00
2013-5-17,-200.0,0.0,200.0,-99.9,-99.9,-99.9,0,0,100,29.76,29.50,0,-999,0,0.00
2013-5-18,56.1,6.8,50.4,44.7,-81.3,-99.9,77,10,66,29.75,29.65,1,-870,1,0.00
2013-5-19,70.5,51.3,47.5,53.5,31.5,-99.9,85,65,55,29.84,29.71,7,-111,7,0.00
2013-5-20,62.2,56.0,49.5,56.5,51.2,45.2,89,84,78,29.85,29.79,1,0,1,0.00
2013-5-21,59.9,56.1,52.2,55.4,50.8,47.0,86,82,76,30.02,29.85,2,0,2,0.00
2013-5-22,58.3,52.8,46.6,48.6,45.1,36.2,89,76,59,30.05,29.96,2,0,2,0.00
2013-5-23,52.9,44.8,39.7,42.1,35.7,-99.9,84,73,55,29.97,29.83,3,-10,3,0.04
2013-5-24,46.0,26.1,38.8,43.6,-16.8,-99.9,92,54,35,29.94,29.57,12,-381,12,0.12
2013-5-25,65.8,35.0,45.0,47.4,-11.5,-99.9,75,37,49,30.10,29.95,2,-374,2,0.00
2013-5-26,71.8,54.7,41.2,49.2,39.2,-99.9,80,60,43,30.09,29.90,7,-17,7,0.00
2013-5-27,68.2,53.8,39.9,50.7,39.0,-99.9,83,61,46,29.90,29.55,12,-19,12,0.00
2013-5-28,51.4,43.3,46.9,47.8,27.6,-99.9,90,76,71,29.55,29.42,4,-117,4,0.12
2013-5-29,46.9,13.1,41.5,44.2,-57.4,-99.9,91,28,90,29.71,29.50,2,-702,2,0.00
2013-5-30,55.2,19.2,50.7,51.8,-44.4,-99.9,94,34,88,29.93,29.69,1,-631,1,0.16
2013-5-31,73.4,8.0,63.1,59.1,-81.8,-99.9,75,9,61,30.05,29.93,1,-870,1,0.00
2013-6-1,64.8,1.4,64.6,48.6,-97.3,-99.9,56,1,56,30.25,30.05,1,-978,1,0.00
2013-6-2,69.6,23.6,52.3,49.4,-47.0,-99.9,70,21,46,30.38,30.24,1,-638,1,0.00
2013-6-3,70.7,43.6,42.6,55.5,13.1,-99.9,84,53,46,30.44,30.32,2,-212,2,0.00
2013-6-4,72.3,58.4,41.7,50.4,44.1,-99.9,83,62,45,30.38,30.13,6,0,6,0.00
2013-6-5,73.4,56.7,46.0,53.9,38.2,-99.9,84,61,50,30.16,30.01,4,-79,4,0.00
2013-6-6,75.0,48.3,46.2,56.6,18.8,-99.9,86,54,50,30.12,30.04,5,-213,5,0.00
2013-6-7,60.1,15.2,49.8,52.0,-59.0,-99.9,89,24,62,30.17,30.08,2,-704,2,0.04
2013-6-8,67.6,40.5,46.6,51.6,4.5,-99.9,84,51,55,30.14,29.98,4,-296,4,0.00
2013-6-9,59.0,21.9,49.6,47.6,-41.3,-99.9,80,32,65,30.00,29.90,2,-568,2,0.00
2013-6-10,-200.0,0.0,200.0,-99.9,-99.9,-99.9,0,0,100,29.95,29.90,0,-999,0,0.00
2013-6-11,49.5,7.6,45.3,45.1,-78.2,-99.9,85,15,83,29.93,29.85,2,-841,2,0.00
2013-6-12,-200.0,0.0,200.0,-99.9,-99.9,-99.9,0,0,100,29.86,29.76,0,-999,0,0.00
2013-6-13,-200.0,0.0,200.0,-99.9,-99.9,-99.9,0,0,100,30.00,29.74,0,-999,0,0.00
2013-6-14,64.2,7.4,46.8,48.6,-81.3,-99.9,88,11,56,30.03,29.74,10,-852,10,0.02
2013-6-15,60.6,11.3,52.2,51.3,-69.5,-99.9,84,18,71,29.85,29.64,6,-777,6,0.00
2013-6-16,63.7,56.6,51.6,53.1,48.9,46.3,86,76,63,29.91,29.84,7,1,7,0.00
2013-6-17,71.4,54.8,52.5,58.4,34.5,-99.9,86,63,59,29.91,29.83,8,-120,8,0.00
2013-6-18,71.4,58.8,54.7,62.2,46.3,-99.9,87,75,71,29.92,29.83,8,-55,8,0.00
2013-6-19,82.2,60.2,57.2,66.5,40.7,-99.9,91,67,58,29.93,29.84,3,-131,3,0.00
2013-6-20,66.9,63.5,56.8,61.4,58.4,52.3,88,83,77,29.88,29.74,6,0,6,0.00
2013-6-21,69.6,61.2,55.2,61.5,56.0,51.0,91,83,71,29.83,29.71,10,1,10,0.00
2013-6-22,66.6,43.0,52.9,58.3,12.6,-99.9,87,59,67,29.82,29.62,13,-256,13,0.04
2013-6-23,66.9,40.0,54.5,57.6,2.3,-99.9,88,52,67,29.99,29.62,6,-323,6,0.00
2013-6-24,61.9,41.1,48.4,52.0,5.5,-99.9,88,51,62,30.25,29.99,23,-300,23,0.00
2013-6-25,72.0,34.2,48.4,58.8,-16.9,-99.9,86,40,55,30.38,30.25,2,-463,2,0.00
2013-6-26,67.8,14.3,60.4,53.1,-67.7,-99.9,70,13,59,30.39,30.30,1,-811,1,0.00
2013-6-27,68.9,7.3,56.8,52.0,-85.7,-99.9,82,9,55,30.32,30.12,0,-863,0,0.00
2013-6-28,64.4,7.0,58.1,57.7,-85.7,-99.9,92,8,78,30.12,30.00,1,-905,1,0.00
2013-6-29,72.7,33.6,56.1,55.3,-25.9,-99.9,85,31,53,30.19,30.02,1,-496,1,0.00
2013-6-30,82.2,64.8,56.7,66.3,51.6,-99.9,88,69,57,30.19,30.00,9,-45,9,0.00
2013-7-1,72.0,62.1,54.3,56.7,51.9,47.2,85,70,58,30.02,29.91,4,0,4,0.00
2013-7-2,61.9,56.3,50.2,53.7,49.9,44.7,87,79,71,29.94,29.62,9,1,9,0.00
2013-7-3,68.2,58.3,50.0,59.6,48.5,32.1,92,71,50,29.95,29.56,32,10,32,0.00
2013-7-4,71.4,62.5,53.1,62.3,56.7,49.0,90,82,73,30.18,29.95,1,0,1,0.00
2013-7-5,79.9,64.8,50.5,64.0,55.1,47.1,89,72,54,30.34,30.18,1,0,1,0.00
2013-7-6,80.4,56.7,50.0,63.9,32.4,-99.9,86,63,50,30.35,30.27,32,-117,32,0.00
2013-7-7,88.5,59.3,56.1,69.4,32.2,-99.9,88,57,46,30.42,30.34,3,-162,3,0.00
2013-7-8,84.0,70.6,56.5,62.0,57.0,51.3,83,64,44,30.44,30.33,5,0,5,0.00
2013-7-9,82.9,69.1,55.4,56.9,52.4,47.7,79,58,38,30.35,30.17,5,0,5,0.00
2013-7-10,80.6,66.8,53.1,61.7,54.0,46.6,81,65,50,30.22,30.14,4,0,4,0.00
2013-7-11,73.4,63.4,52.2,54.4,49.9,44.7,78,63,49,30.22,30.13,6,0,6,0.00
2013-7-12,74.5,63.3,52.7,59.4,53.6,46.9,82,71,58,30.23,30.14,2,0,2,0.00
2013-7-13,88.2,71.9,55.0,68.7,59.9,-99.9,88,69,50,30.19,30.13,4,0,4,0.00
2013-7-14,87.1,71.2,59.2,69.4,55.5,-99.9,86,64,48,30.18,30.10,2,-35,2,0.00
2013-7-15,88.7,75.1,61.0,61.7,58.4,54.0,78,58,39,30.16,30.11,6,-3,6,0.00
2013-7-16,88.9,74.6,59.7,67.1,59.8,53.8,83,62,45,30.15,30.10,6,-3,6,0.00
2013-7-17,90.7,74.6,58.8,67.9,59.5,52.3,81,61,44,30.20,30.13,6,-3,6,0.00
2013-7-18,87.4,74.0,60.6,66.7,59.3,53.2,81,62,45,30.24,30.17,5,-3,5,0.00
2013-7-19,86.4,72.1,57.0,64.4,57.0,49.5,76,61,45,30.23,30.12,4,0,4,0.00
2013-7-20,77.7,67.8,59.7,63.7,58.5,54.3,86,73,61,30.16,30.06,12,-3,12,0.00
2013-7-21,82.0,69.5,58.6,67.3,59.7,52.3,84,72,57,30.09,29.94,3,0,3,0.00
2013-7-22,91.8,75.5,62.6,71.1,63.2,57.3,87,68,45,29.99,29.88,6,1,6,0.00
2013-7-23,86.7,72.0,61.5,70.0,62.4,55.7,83,72,56,29.89,29.83,8,-6,8,0.00
2013-7-24,83.5,67.7,55.9,65.0,58.7,52.1,89,74,53,29.91,29.86,8,-3,8,0.00
2013-7-25,77.5,66.7,60.1,66.6,59.8,54.0,92,79,60,29.87,29.81,8,1,8,0.00
2013-7-26,82.4,67.3,54.3,64.3,55.4,-99.9,89,70,15,29.86,29.78,6,1,6,0.00
2013-7-27,84.7,65.8,53.2,62.6,56.3,48.2,90,73,46,29.80,29.52,7,0,7,0.00
2013-7-28,75.9,62.6,57.2,63.6,50.2,-99.9,92,74,59,29.71,29.55,12,-57,12,0.00
2013-7-29,76.8,63.4,58.8,63.9,53.7,-99.9,92,77,62,29.91,29.70,10,-34,10,0.00
2013-7-30,68.2,62.1,58.8,64.1,58.9,55.3,94,89,86,29.92,29.79,6,0,6,0.00
2013-7-31,73.9,65.4,58.8,66.7,60.9,55.9,92,86,77,29.94,29.88,6,0,6,0.00
2013-8-1,91.8,75.9,60.8,71.8,65.0,58.5,92,71,50,29.88,29.62,17,1,17,0.00
2013-8-2,81.5,67.2,60.8,66.5,59.8,56.5,89,78,59,29.77,29.68,7,1,7,0.00
2013-8-3,79.7,48.1,57.4,63.3,10.4,-99.9,93,50,53,30.04,29.74,10,-282,10,0.00
2013-8-4,74.5,64.5,56.1,62.0,56.7,52.8,91,77,60,30.06,29.96,10,1,10,0.00
2013-8-5,71.2,64.0,58.8,61.3,58.3,56.0,92,82,67,29.96,29.69,7,1,7,0.00
2013-8-6,83.3,61.5,52.3,65.4,44.7,-99.9,93,67,46,29.99,29.85,4,-48,4,0.00
2013-8-7,79.7,63.5,53.4,58.2,52.8,48.4,87,70,47,29.98,29.84,4,0,4,0.00
2013-8-8,80.4,64.5,49.8,63.0,53.8,46.0,88,70,48,30.07,29.97,6,1,6,0.00
2013-8-9,79.9,58.0,59.7,65.3,34.7,-99.9,86,60,51,30.12,29.97,6,-134,6,0.00
2013-8-10,75.9,57.8,52.3,56.2,39.9,-99.9,80,63,49,30.15,30.07,4,-58,4,0.00
2013-8-11,81.1,64.5,57.4,60.9,53.6,-99.9,84,69,49,30.08,29.95,5,0,5,0.00
2013-8-12,70.0,52.7,53.2,59.0,31.4,-99.9,84,61,51,30.05,29.94,2,-121,2,0.00
2013-8-13,70.5,59.1,49.6,54.1,49.3,-99.9,85,72,53,30.16,30.04,3,0,3,0.00
2013-8-14,75.9,61.0,50.7,62.3,52.8,-99.9,92,77,59,30.17,30.09,6,-6,6,0.00
2013-8-15,80.8,46.4,60.4,66.1,7.5,-99.9,92,52,61,30.10,29.95,8,-325,8,0.00
2013-8-16,70.3,53.2,59.4,63.8,33.1,-99.9,90,73,79,29.96,29.88,7,-152,7,0.00
2013-8-17,67.6,54.6,54.3,59.6,38.7,-99.9,94,78,72,29.93,29.68,8,-79,8,0.00
2013-8-18,74.3,22.3,61.3,62.8,-51.2,-99.9,94,26,65,29.85,29.67,3,-681,3,0.00
2013-8-19,71.8,12.7,52.3,59.9,-72.9,-99.9,87,14,52,30.25,29.85,0,-813,0,0.00
2013-8-20,-200.0,0.0,200.0,-99.9,-99.9,-99.9,0,0,100,30.31,30.23,0,-999,0,0.00
2013-8-21,-200.0,0.0,200.0,-99.9,-99.9,-99.9,0,0,100,30.25,30.09,0,-999,0,0.00
2013-8-22,67.3,4.5,67.3,52.5,-89.7,-99.9,59,4,59,30.10,29.98,0,-932,0,0.00
2013-8-23,71.1,1.2,65.7,57.8,-97.7,-99.9,72,2,63,29.98,29.78,0,-978,0,0.00
2013-8-24,65.7,1.2,65.5,-99.9,-99.9,-99.9,83,2,81,29.82,29.75,0,-999,0,0.00
2013-8-25,73.6,25.3,59.5,61.8,-41.1,-99.9,94,28,63,29.97,29.37,3,-625,3,0.00
2013-8-26,87.1,67.5,59.2,64.5,57.6,51.1,91,73,44,30.02,29.96,1,0,1,0.00
2013-8-27,84.0,62.0,50.5,61.8,51.3,-99.9,91,72,40,30.06,29.98,1,0,1,0.00
2013-8-28,85.6,63.3,49.8,60.3,52.1,45.4,91,69,37,30.17,30.06,2,-3,2,0.00
2013-8-29,80.6,65.4,53.8,61.8,55.2,49.5,91,71,48,30.15,30.07,2,0,2,0.00
2013-8-30,79.2,66.3,56.8,64.3,58.6,53.3,89,77,58,30.09,29.99,8,0,8,0.00
2013-8-31,77.0,63.5,55.9,58.7,50.2,42.2,91,64,39,30.34,30.06,1,0,1,0.00
2013-9-1,72.0,59.5,46.6,52.0,47.1,40.1,81,64,49,30.40,30.28,2,0,2,0.00
2013-9-2,85.8,65.2,51.1,61.8,54.9,47.6,91,71,44,30.31,30.22,2,0,2,0.00
2013-9-3,82.0,65.4,55.8,67.4,58.4,53.2,91,79,60,30.30,30.19,5,0,5,0.00
2013-9-4,89.6,67.7,52.0,66.5,55.3,48.9,93,68,36,30.21,29.93,8,0,8,0.00
2013-9-5,93.0,69.2,53.4,65.9,55.9,48.7,89,65,40,29.93,29.70,2,0,2,0.00
2013-9-6,64.8,59.1,53.8,60.2,52.7,48.5,91,80,61,29.78,29.65,57,1,57,0.00
2013-9-7,71.4,57.0,49.6,57.7,49.9,46.0,93,78,55,29.99,29.77,8,1,8,0.00
2013-9-8,64.6,52.3,46.6,56.8,45.4,-99.9,92,83,62,30.02,29.97,5,-13,5,0.00
2013-9-9,62.4,52.8,46.0,59.5,50.2,-99.9,94,93,89,30.01,29.88,2,0,2,0.00
2013-9-10,62.4,53.2,48.4,53.8,42.8,-99.9,94,77,67,30.11,30.00,2,-41,2,0.00
2013-9-11,63.7,57.1,53.2,52.7,50.7,48.2,92,80,65,30.13,30.05,2,0,2,0.00
2013-9-12,65.3,57.5,53.8,60.2,53.0,-99.9,94,89,80,30.06,30.01,5,-24,5,0.00
2013-9-13,68.2,62.8,60.4,66.7,61.0,58.7,95,94,90,30.01,29.80,5,0,5,0.00
2013-9-14,61.0,52.5,48.4,59.5,50.3,31.4,96,93,44,30.02,29.79,4,0,4,0.00
2013-9-15,62.2,52.8,41.9,58.5,49.9,40.0,95,90,74,30.01,29.50,13,1,13,0.00
2013-9-16,70.9,52.5,45.7,51.9,44.4,40.5,92,75,43,29.60,29.52,0,0,0,0.00
2013-9-17,59.5,52.4,46.0,57.8,49.0,41.5,95,88,77,29.61,29.29,0,0,0,0.00
2013-9-18,59.7,54.6,46.6,55.9,49.9,42.0,96,85,68,29.83,29.35,0,0,0,0.00
2013-9-19,61.5,50.8,44.4,59.3,42.8,-99.9,94,85,77,29.86,29.68,0,-35,0,0.00
2013-9-20,74.8,56.5,47.1,56.9,50.4,45.2,94,81,54,30.13,29.83,0,0,0,0.00
2013-9-21,65.1,57.5,48.6,61.0,54.5,46.1,93,90,84,30.26,30.12,0,0,0,0.00
2013-9-22,67.5,63.4,56.8,63.2,60.6,54.5,93,90,85,30.32,30.25,0,0,0,0.00
2013-9-23,67.3,60.0,54.0,62.0,57.1,51.9,95,90,82,30.28,30.05,0,0,0,0.00
2013-9-24,73.4,58.9,49.3,66.7,55.6,47.6,95,89,75,30.05,29.86,0,0,0,0.00
2013-9-25,74.1,61.9,55.0,65.3,58.4,53.2,95,89,72,29.87,29.75,0,0,0,0.00
2013-9-26,67.8,56.8,53.1,62.1,48.4,-99.9,95,83,72,29.99,29.83,0,-49,0,0.00
2013-9-27,68.2,56.5,49.6,57.9,51.5,47.3,94,84,67,29.99,29.84,0,0,0,0.00
2013-9-28,65.1,58.2,52.3,59.2,53.9,49.2,93,86,75,29.85,29.65,0,0,0,0.00
2013-9-29,71.4,59.4,54.1,58.5,54.0,50.9,91,83,64,29.67,29.62,1,0,1,0.00
2013-9-30,65.8,58.6,53.8,59.1,54.4,50.3,92,86,73,29.70,29.60,0,0,0,0.00
2013-10-1,61.9,56.8,51.4,58.3,53.4,48.8,93,88,83,29.74,29.68,0,0,0,0.00
2013-10-2,70.0,61.0,56.5,66.9,58.2,53.4,96,91,82,29.82,29.70,0,0,0,0.00
2013-10-3,65.3,61.6,57.6,63.0,59.9,55.8,95,94,92,29.81,29.61,0,0,0,0.00
2013-10-4,75.0,63.7,58.3,65.0,60.3,56.0,95,89,71,29.89,29.61,0,0,0,0.00
2013-10-5,65.8,59.9,54.5,61.7,56.6,51.9,94,89,79,30.19,29.88,0,0,0,0.00
2013-10-6,76.6,57.2,45.7,59.4,51.9,44.1,96,84,53,30.25,30.19,0,0,0,0.00
2013-10-7,68.2,58.5,49.3,61.7,54.7,47.0,95,88,77,30.25,30.19,0,0,0,0.00
2013-10-8,74.5,61.9,54.9,63.0,57.7,53.1,95,87,66,30.23,30.17,0,0,0,0.00
2013-10-9,67.6,56.5,46.2,60.5,51.1,39.1,94,83,67,30.18,29.94,0,0,0,0.00
2013-10-10,54.7,48.4,44.4,42.2,40.1,38.3,83,73,61,30.06,29.97,0,0,0,0.00
2013-10-11,56.3,51.1,45.7,52.4,47.8,39.9,94,89,76,30.06,29.90,0,0,0,0.00
2013-10-12,65.1,52.8,45.1,54.1,48.6,42.6,96,86,65,30.06,29.88,0,0,0,0.00
2013-10-13,52.0,48.9,45.1,50.5,47.3,42.7,96,94,91,29.97,29.73,0,0,0,0.00
2013-10-14,52.5,48.2,44.8,51.0,46.6,43.7,96,94,91,29.75,29.66,0,0,0,0.00
2013-10-15,61.3,49.8,44.2,53.6,47.0,41.9,95,90,74,29.91,29.70,0,0,0,0.00
2013-10-16,60.6,49.9,39.7,59.2,47.9,38.1,96,93,88,29.92,29.63,0,0,0,0.00
2013-10-17,66.4,57.9,54.3,60.3,54.5,51.6,95,89,78,29.96,29.78,0,0,0,0.00
2013-10-18,63.3,56.6,50.4,59.7,54.0,48.6,95,91,81,29.96,29.69,0,0,0,0.00
2013-10-19,64.2,58.8,56.3,62.2,56.8,53.9,95,93,89,29.69,29.58,0,0,0,0.00
2013-10-20,60.6,56.4,53.4,58.3,54.0,-99.9,95,93,91,29.69,29.57,0,-10,0,0.00
2013-10-21,63.1,57.2,56.8,59.7,50.5,-99.9,96,89,87,29.70,29.53,57,-35,57,0.00
2013-10-22,64.0,60.2,54.5,61.6,58.0,52.5,96,92,88,29.54,29.26,0,0,0,0.00
2013-10-23,67.1,55.7,46.0,58.9,50.9,-99.9,95,88,75,29.81,29.19,0,-10,0,0.00
2013-10-24,66.0,52.0,41.4,59.0,49.1,39.5,95,90,78,29.93,29.75,0,0,0,0.00
2013-10-25,64.2,59.9,56.5,62.0,57.3,54.5,96,91,86,29.75,29.53,0,0,0,0.00
2013-10-26,62.2,59.2,57.0,58.6,56.1,54.1,93,89,85,29.66,29.43,0,-10,0,0.02
2013-10-27,65.1,51.6,51.6,55.7,39.7,-99.9,95,80,68,29.44,29.14,0,-80,0,0.69
2013-10-28,65.5,35.9,52.5,58.4,-4.4,-99.9,96,54,63,29.55,28.86,0,-377,0,0.75
2013-10-29,-200.0,0.0,200.0,-99.9,-99.9,-99.9,0,0,100,30.02,29.54,0,-999,0,0.00
2013-10-30,-200.0,0.0,200.0,-99.9,-99.9,-99.9,0,0,100,30.14,30.02,0,-999,0,0.00
2013-10-31,-200.0,0.0,200.0,-99.9,-99.9,-99.9,0,0,100,30.02,29.89,0,-999,0,0.00
2013-11-1,-200.0,0.0,200.0,-99.9,-99.9,-99.9,0,0,100,29.89,29.46,0,-999,0,0.00
2013-11-2,-200.0,0.0,200.0,-99.9,-99.9,-99.9,0,0,100,29.53,29.35,0,-999,0,0.00
2013-11-3,-200.0,0.0,200.0,-99.9,-99.9,-99.9,0,0,100,29.55,28.96,0,-999,0,0.00
2013-11-4,-200.0,0.0,200.0,-99.9,-99.9,-99.9,0,0,100,29.45,28.91,0,-999,0,0.00
2013-11-5,-200.0,0.0,200.0,-99.9,-99.9,-99.9,0,0,100,29.49,29.20,0,-999,0,0.00
2013-11-6,-200.0,0.0,200.0,-99.9,-99.9,-99.9,0,0,100,29.50,29.43,0,-999,0,0.00
2013-11-7,-200.0,0.0,200.0,-99.9,-99.9,-99.9,0,0,100,29.73,29.48,0,-999,0,0.00
2013-11-8,-200.0,0.0,200.0,-99.9,-99.9,-99.9,0,0,100,29.73,29.52,0,-999,0,0.00
2013-11-9,-200.0,0.0,200.0,-99.9,-99.9,-99.9,0,0,100,29.74,29.59,0,-999,0,0.00
2013-12-15,54.3,54.3,54.3,46.9,46.9,46.9,1,1,1,30.13,29.95,0,0,0,0.00
2013-12-16,54.3,54.3,54.3,46.9,46.9,46.9,1,1,1,30.07,29.89,0,0,0,0.00
2013-12-17,54.3,54.3,54.3,46.9,46.9,46.9,1,1,1,30.22,29.93,0,0,0,0.00
2013-12-18,54.3,54.3,54.3,46.9,46.9,46.9,1,1,1,29.94,29.25,0,0,0,0.00
2013-12-19,54.3,54.3,54.3,46.9,46.9,46.9,1,1,1,29.83,29.28,0,0,0,0.00
2013-12-20,54.3,54.3,54.3,46.9,46.9,46.9,1,1,1,30.15,29.83,0,0,0,0.00
2013-12-21,54.3,52.4,49.6,47.4,46.7,45.1,89,45,1,30.02,29.68,0,-42,0,1.45
2013-12-22,49.6,48.3,46.0,45.2,43.4,40.6,85,83,80,29.88,29.68,0,-999,0,0.00
2013-12-23,48.6,46.3,45.3,45.2,41.8,40.2,88,84,81,29.88,29.13,0,-999,0,0.00
2013-12-28,-200.0,0.0,200.0,-99.9,-99.9,-99.9,0,0,100,29.78,29.63,0,-999,0,0.00
2013-12-29,51.1,31.7,32.0,40.7,9.6,-99.9,96,69,60,30.16,29.78,14,-185,14,0.00
2013-12-30,53.2,42.3,43.5,46.5,28.2,-99.9,91,76,67,30.08,29.74,28,-93,28,0.48
2013-12-31,50.0,35.4,39.7,46.1,11.9,-99.9,93,70,84,29.92,29.62,19,-204,19,0.24
2014-1-1,50.9,47.0,41.2,47.6,43.9,37.8,94,89,84,29.66,29.10,27,10,27,0.97
2014-1-2,52.2,46.8,41.4,46.6,42.5,38.9,93,85,66,29.53,29.14,25,6,25,0.28